Wind_Speed
5 6 5 1 3 4 2 5 1 3 3 8 16 10 7 2 1 2 24 25 22 25 24 22 20 19 17 15 13 11 10 9 10 9 8 9 10 10 10 10 11 11 11 12 12 12 12 11 10
5 5 2 2 4 2 4 3 4 8 14 21 21 18 15 3 6 17 20 21 23 24 23 21 19 17 16 15 12 11 10 9 9 8 8 9 9 9 11 12 12 11 12 11 11 11 10 10 9
8 6 1 4 3 4 4 3 11 12 10 12 9 11 2 2 15 21 17 24 25 23 20 19 18 16 14 13 13 10 10 9 9 8 8 9 8 9 11 12 12 11 10 9 9 9 9 9 10
7 4 1 4 5 6 4 7 16 3 3 14 17 6 3 3 16 15 22 25 21 20 20 19 17 15 15 14 11 11 9 8 9 8 7 8 8 9 12 12 10 10 10 10 10 9 9 9 9
9 2 3 0 4 4 4 15 12 6 1 20 14 7 4 9 7 17 24 22 21 21 19 17 16 15 14 12 10 9 8 8 8 6 8 8 9 10 11 11 11 11 11 13 13 14 14 13 13
3 2 3 2 3 4 3 16 14 7 6 9 7 9 5 10 15 19 21 21 20 19 18 16 14 13 12 10 9 8 8 8 7 8 9 9 10 10 12 12 11 13 13 15 16 16 15 15 15
4 4 3 3 1 3 4 14 11 9 14 3 16 4 12 20 18 20 21 21 20 18 16 16 14 12 10 9 9 8 8 8 9 10 10 10 10 11 13 12 12 13 13 14 16 18 17 16 15
2 4 4 3 2 4 3 5 8 9 3 18 5 6 9 25 20 20 19 19 18 18 16 14 11 10 10 11 9 9 9 10 10 11 10 11 11 11 10 11 11 11 12 12 13 15 16 17 18
2 4 0 5 4 3 8 4 5 6 14 4 1 10 25 26 22 22 23 22 21 17 13 11 11 11 12 12 11 10 11 12 12 12 10 10 9 9 10 9 9 10 10 11 13 14 16 17 19
3 3 9 5 4 9 22 8 12 7 8 3 7 12 30 28 26 28 28 25 21 17 13 12 11 12 12 11 11 12 11 11 10 11 9 9 7 7 7 7 7 7 8 9 11 12 14 16 19
4 4 6 3 11 14 10 7 7 18 2 10 25 32 32 30 29 27 24 20 18 14 14 13 11 11 11 12 12 11 10 9 7 9 8 6 5 5 5 4 5 6 8 11 12 13 15 17 21
1 8 7 10 16 10 12 9 7 7 4 18 21 28 33 32 31 27 22 21 20 16 12 12 11 10 10 11 10 7 8 7 5 5 4 3 3 3 2 2 5 9 11 12 14 15 18 21 23
3 4 4 9 11 16 15 7 7 5 6 20 25 29 30 31 29 27 18 16 17 15 13 11 9 9 8 7 7 6 4 3 3 2 2 2 1 2 4 7 8 9 10 11 13 18 22 23 22
8 5 5 3 13 11 9 4 3 3 15 22 27 28 27 26 24 24 22 17 16 14 11 9 7 9 9 6 7 8 7 5 7 5 4 4 4 5 7 9 9 9 11 15 18 24 24 21 19
9 5 6 7 4 4 14 4 1 4 20 26 30 29 28 28 25 23 21 18 14 14 15 14 13 13 10 7 7 11 10 13 14 11 10 9 9 10 11 10 10 14 18 20 25 26 21 18 18
6 5 4 3 3 3 5 4 8 7 23 22 23 21 21 18 22 24 22 21 20 21 20 19 19 17 12 5 13 13 18 17 18 14 12 10 10 10 10 14 18 19 22 26 26 22 20 19 20
6 3 3 1 3 3 5 2 12 3 16 11 11 11 12 15 13 19 19 20 20 22 22 23 19 17 11 14 17 18 13 11 7 8 7 9 9 12 15 18 20 23 25 24 22 20 19 21 21
5 3 1 4 1 12 8 5 7 10 11 11 11 10 10 10 7 9 12 12 12 19 20 17 15 12 9 7 8 10 7 3 4 9 7 10 13 16 20 22 21 24 26 25 22 22 22 24 25
4 4 3 2 4 8 5 6 9 16 17 16 17 17 16 13 12 8 7 6 7 8 12 12 11 6 3 4 13 6 4 9 10 9 14 16 18 21 19 22 23 25 21 21 20 20 21 24 27
6 6 3 3 4 9 10 10 7 14 7 13 23 25 28 27 23 18 16 13 11 12 12 14 11 11 7 7 1 5 8 8 9 13 15 17 18 18 19 20 20 17 17 20 22 24 23 26 28
4 4 3 5 10 6 7 6 7 6 11 15 22 26 23 21 22 20 19 17 17 17 16 16 14 12 10 9 7 9 9 9 12 15 16 18 19 17 18 17 15 20 29 31 31 28 27 27 25
3 1 5 7 4 4 2 2 2 2 2 3 12 17 18 21 21 22 19 19 17 17 14 11 10 7 4 5 7 10 11 11 13 15 17 17 16 16 17 20 29 35 35 30 22 25 27 27 26
3 6 6 3 5 5 4 5 3 3 4 5 9 14 18 20 20 22 18 15 15 14 11 8 6 4 5 8 9 13 14 13 14 15 16 15 19 25 28 29 30 27 23 24 23 25 26 25 21
4 6 6 4 3 2 4 5 4 7 7 5 9 16 18 18 19 20 16 12 9 9 7 4 1 4 7 9 10 11 11 11 12 14 16 21 23 23 28 26 25 24 19 18 20 23 23 21 19
6 5 3 3 3 4 1 3 6 11 7 11 17 20 18 18 20 19 16 12 9 7 3 2 1 3 3 6 8 7 9 12 14 15 18 22 23 24 24 23 22 14 12 11 14 19 22 19 17
2 5 5 6 3 3 3 3 4 7 20 26 25 19 18 17 18 15 14 12 9 8 7 3 1 5 8 7 7 9 12 16 19 21 24 27 27 26 24 22 20 22 23 27 14 14 18 16 17
2 2 3 7 3 3 3 4 4 4 5 16 21 16 17 16 17 17 15 13 11 8 4 2 7 9 7 9 11 15 20 23 25 28 31 32 31 26 21 16 17 21 22 8 12 16 15 15 15
2 5 3 3 3 2 3 4 4 5 9 8 9 17 18 19 20 19 16 13 9 4 3 8 9 9 9 12 17 22 26 28 30 33 33 31 27 19 16 13 21 19 22 15 11 12 14 16 17
2 2 6 5 3 4 1 5 4 9 11 9 14 20 23 25 23 19 14 10 5 1 4 11 7 6 11 17 21 24 26 30 30 32 32 29 19 15 18 22 25 16 15 9 11 14 16 19 20
1 3 4 5 3 1 3 5 4 8 13 17 18 21 24 24 20 15 10 6 4 2 3 4 4 10 15 20 22 23 26 29 31 32 29 24 16 15 16 18 23 19 9 9 13 17 18 22 23
Wind_Direction
230 224 180 181 74 67 234 257 263 95 76 87 77 73 102 97 63 158 141 159 171 163 160 162 166 160 159 157 153 150 141 134 123 117 105 90 80 72 62 58 61 64 65 60 52 46 38 30 28
205 207 177 62 89 95 289 238 118 112 129 93 66 46 36 315 95 141 150 167 172 167 163 164 162 162 159 156 155 153 140 132 125 112 96 82 81 68 68 72 72 67 66 57 47 41 33 28 21
171 189 256 107 116 196 197 199 95 147 121 101 102 49 289 162 151 138 158 163 172 167 161 162 163 160 160 159 157 148 141 137 122 106 94 86 80 72 76 79 80 73 63 51 37 27 21 15 9
159 174 106 90 218 248 194 144 134 151 64 70 89 134 176 264 144 157 162 165 169 160 161 163 162 162 164 161 150 143 140 127 121 108 95 100 88 86 83 82 73 62 52 39 29 22 17 10 7
157 134 66 166 251 250 240 151 160 107 278 127 169 163 132 159 167 157 161 163 163 160 162 164 166 168 162 155 145 137 133 130 117 108 113 102 93 91 87 78 71 61 52 47 38 35 30 26 23
130 107 76 219 290 315 49 133 137 153 124 140 129 114 129 164 156 155 160 157 160 158 164 162 165 166 159 151 146 137 135 136 131 126 113 106 110 102 96 90 78 72 60 61 52 42 36 32 24
138 99 198 156 223 339 85 134 139 117 170 164 146 92 135 145 162 152 157 157 162 161 164 167 169 164 162 156 148 144 144 144 137 127 125 123 116 109 102 88 83 76 71 67 57 51 49 41 28
216 99 187 50 235 99 99 106 181 118 132 151 121 144 164 162 165 157 161 167 165 169 170 170 167 167 165 161 153 146 146 141 137 139 137 134 124 110 101 93 84 76 69 62 53 45 40 36 31
200 61 34 157 180 115 92 119 173 113 133 80 222 165 161 159 163 164 166 169 174 173 167 164 163 167 161 160 155 150 144 140 143 147 141 131 121 103 91 76 68 66 56 48 39 30 26 21 13
113 109 198 221 234 155 171 154 152 127 131 74 142 154 157 162 167 170 172 171 172 168 164 161 161 159 157 155 149 143 142 144 143 154 143 131 114 95 88 77 60 52 42 28 21 14 9 4 356
152 188 184 253 224 185 137 102 129 133 228 186 150 155 166 168 175 178 177 178 171 166 172 156 157 153 154 154 151 148 146 148 135 146 146 125 99 87 83 70 44 19 6 0 359 354 350 347 342
150 222 215 209 199 129 132 116 118 151 204 179 162 162 169 175 181 184 187 182 185 178 168 165 158 159 158 162 160 156 154 152 125 111 112 105 72 59 59 356 357 350 349 347 344 342 340 331 321
209 332 9 142 147 129 134 131 170 218 155 166 162 169 177 182 188 191 192 189 194 184 177 173 167 175 183 183 193 194 188 167 170 90 153 128 34 333 317 314 321 322 321 323 326 323 321 320 313
175 95 39 65 123 125 123 101 123 240 168 164 172 180 183 190 196 196 199 204 206 199 195 188 180 186 200 221 242 239 236 246 234 230 228 238 253 270 279 282 278 283 298 304 307 318 322 318 314
105 70 20 23 47 87 109 31 9 189 166 167 181 186 190 194 201 207 212 218 219 216 213 203 197 194 207 221 267 274 313 266 257 251 250 262 261 266 257 254 275 293 295 304 315 318 314 312 310
64 50 92 292 45 53 94 260 8 178 170 171 184 189 198 198 210 217 226 227 223 226 224 217 205 194 176 246 336 292 293 264 256 245 253 271 273 267 277 293 295 296 306 316 319 314 307 303 301
20 161 124 28 54 105 58 10 340 208 181 150 162 175 191 200 209 220 228 236 232 235 230 221 200 197 229 229 269 247 270 253 241 263 279 292 297 298 302 305 308 313 320 321 316 308 305 303 301
201 150 127 184 23 46 64 13 344 44 143 107 121 142 154 176 186 195 216 230 218 224 227 211 197 222 223 248 212 174 161 141 341 312 295 301 309 313 310 311 316 324 323 315 307 304 304 304 305
164 116 162 349 73 74 71 59 21 55 89 101 112 121 123 122 120 131 152 178 184 182 201 216 243 283 114 119 146 135 349 325 293 309 321 321 322 321 311 312 312 314 305 301 301 302 303 304 308
82 101 80 131 23 91 91 56 30 39 50 102 118 114 111 104 104 108 110 109 110 99 84 81 77 80 95 143 182 331 342 354 328 315 306 306 312 308 304 302 299 302 312 318 316 316 322 327 327
58 116 213 132 97 94 83 43 22 15 75 111 122 123 122 119 120 114 107 94 87 85 82 90 100 101 89 75 43 11 1 335 305 297 299 300 295 291 292 290 297 316 324 322 321 319 321 324 327
84 77 98 137 90 148 31 168 58 350 40 30 139 136 126 122 120 116 108 107 107 106 100 93 90 77 37 359 342 334 322 302 295 294 293 291 291 293 299 315 318 314 312 313 311 322 327 326 323
110 99 135 100 81 100 12 89 255 135 229 210 189 158 140 137 131 118 118 120 119 114 113 109 91 39 6 345 332 331 327 312 307 306 298 302 319 321 320 320 312 317 315 308 306 315 321 321 320
134 85 50 54 79 45 217 124 238 196 192 184 195 176 160 151 139 131 134 132 138 128 118 102 57 348 339 331 323 323 326 336 346 339 326 317 317 320 324 322 314 307 299 319 329 325 322 322 325
70 64 12 9 10 219 344 113 231 206 184 186 188 188 169 159 156 156 155 149 153 140 158 198 224 278 318 319 327 351 350 348 338 327 316 312 320 317 317 304 290 282 288 308 320 329 331 329 337
99 146 153 200 186 223 26 236 252 215 189 190 188 186 175 179 179 173 166 159 168 160 151 153 280 315 319 329 342 336 330 328 328 324 319 315 313 314 312 304 281 291 293 298 331 321 318 323 333
172 59 161 109 2 78 253 287 321 90 159 184 199 200 183 182 176 167 159 159 155 153 153 294 314 322 337 347 340 340 341 335 331 326 322 317 314 313 303 273 261 286 296 299 307 313 319 315 322
136 143 66 9 135 271 290 274 232 191 200 193 183 194 185 175 167 164 159 157 156 168 325 328 326 328 337 338 333 335 336 333 332 330 327 326 322 303 270 248 278 288 304 309 314 307 316 311 312
22 45 57 106 102 157 220 261 224 213 200 181 191 196 185 176 170 164 161 160 169 225 316 313 309 327 333 335 338 340 341 342 339 335 334 336 332 294 275 299 316 312 310 316 313 314 312 315 315
151 132 123 110 205 67 145 273 354 262 202 177 183 181 174 170 160 161 163 181 204 291 288 324 330 329 333 339 342 344 343 344 342 340 339 341 337 313 304 299 309 304 285 315 316 322 317 320 317
Height
1516 1516 1517 1516 1526 1526 1532 1527 1514 1518 1522 1524 1524 1529 1531 1533 1531 1538 1534 1539 1545 1546 1548 1550 1553 1556 1557 1561 1562 1565 1566 1568 1568 1570 1571 1570 1570 1569 1569 1569 1568 1568 1567 1567 1567 1567 1567 1567 1565
1514 1515 1516 1514 1535 1540 1531 1517 1516 1516 1520 1520 1524 1531 1531 1537 1532 1535 1539 1539 1546 1547 1548 1552 1554 1557 1558 1560 1562 1565 1566 1567 1569 1570 1572 1570 1571 1571 1569 1569 1569 1570 1569 1568 1569 1568 1568 1567 1565
1513 1515 1517 1520 1538 1535 1532 1517 1515 1519 1521 1518 1526 1535 1539 1538 1532 1533 1539 1540 1544 1547 1550 1553 1555 1557 1559 1560 1562 1564 1566 1568 1569 1571 1571 1571 1572 1572 1570 1569 1569 1569 1569 1569 1569 1569 1568 1568 1566
1512 1516 1518 1525 1529 1521 1514 1514 1510 1520 1524 1524 1526 1534 1537 1536 1533 1535 1539 1543 1546 1549 1552 1554 1556 1557 1559 1561 1562 1564 1567 1568 1569 1571 1571 1572 1571 1571 1570 1570 1571 1570 1568 1568 1569 1569 1568 1568 1566
1512 1513 1525 1527 1522 1514 1510 1510 1515 1522 1526 1521 1520 1525 1531 1536 1536 1537 1540 1543 1546 1550 1553 1556 1557 1559 1560 1561 1562 1564 1567 1569 1570 1571 1572 1571 1572 1572 1571 1571 1571 1570 1570 1569 1569 1568 1567 1566 1566
1513 1514 1528 1529 1518 1511 1509 1508 1514 1520 1522 1523 1523 1527 1531 1536 1537 1540 1542 1544 1548 1550 1553 1556 1558 1560 1560 1562 1562 1565 1567 1569 1570 1571 1572 1572 1572 1571 1570 1571 1571 1571 1572 1571 1571 1570 1568 1567 1567
1512 1517 1525 1519 1519 1514 1510 1512 1514 1517 1518 1524 1525 1529 1534 1535 1539 1541 1544 1548 1549 1551 1554 1557 1558 1559 1561 1563 1563 1565 1566 1568 1570 1571 1572 1573 1573 1572 1571 1573 1573 1572 1572 1573 1572 1572 1570 1568 1568
1510 1512 1518 1513 1519 1517 1511 1513 1519 1516 1521 1524 1523 1528 1535 1535 1538 1541 1545 1549 1550 1553 1555 1557 1559 1560 1561 1563 1563 1564 1566 1569 1571 1572 1572 1573 1572 1572 1572 1572 1572 1572 1572 1573 1571 1572 1571 1569 1568
1509 1519 1522 1515 1513 1511 1515 1517 1519 1518 1520 1523 1523 1524 1528 1534 1539 1542 1545 1547 1551 1552 1554 1556 1558 1560 1561 1562 1563 1565 1567 1569 1570 1571 1573 1573 1573 1573 1570 1573 1573 1572 1573 1572 1571 1570 1569 1568 1568
1507 1521 1517 1506 1507 1504 1509 1512 1517 1520 1523 1525 1525 1527 1530 1535 1538 1541 1543 1546 1549 1552 1554 1556 1559 1560 1562 1563 1564 1565 1568 1570 1571 1573 1573 1573 1572 1573 1572 1572 1572 1573 1571 1571 1569 1568 1567 1566 1566
1506 1513 1508 1503 1505 1505 1507 1514 1515 1519 1525 1523 1524 1528 1533 1536 1540 1542 1544 1546 1549 1552 1556 1557 1560 1561 1563 1565 1566 1566 1569 1571 1572 1574 1574 1573 1574 1572 1572 1572 1572 1571 1571 1570 1569 1568 1566 1565 1564
1506 1504 1503 1501 1499 1507 1510 1514 1516 1518 1520 1521 1523 1525 1531 1535 1539 1541 1544 1546 1548 1553 1556 1559 1560 1563 1566 1567 1568 1569 1571 1571 1572 1574 1574 1574 1574 1573 1572 1572 1571 1571 1571 1570 1569 1568 1566 1564 1563
1503 1501 1501 1502 1504 1507 1511 1515 1516 1519 1520 1523 1526 1530 1532 1535 1538 1543 1546 1549 1552 1554 1557 1560 1562 1564 1568 1570 1572 1572 1574 1574 1574 1575 1573 1573 1572 1572 1572 1572 1570 1570 1569 1568 1567 1565 1563 1562 1561
1500 1503 1504 1505 1505 1508 1512 1516 1516 1519 1522 1524 1527 1530 1533 1537 1539 1544 1548 1551 1553 1556 1560 1562 1565 1566 1568 1574 1574 1576 1576 1575 1574 1573 1572 1572 1571 1571 1571 1570 1569 1568 1567 1565 1563 1562 1559 1557 1556
1499 1506 1505 1506 1507 1512 1512 1520 1521 1521 1523 1524 1529 1532 1536 1541 1543 1546 1550 1553 1555 1557 1560 1562 1563 1566 1569 1569 1571 1575 1576 1574 1572 1571 1570 1570 1570 1569 1569 1568 1567 1565 1563 1561 1560 1557 1555 1554 1552
1507 1513 1522 1511 1510 1514 1515 1532 1525 1526 1524 1528 1531 1535 1538 1542 1545 1547 1550 1553 1555 1556 1559 1561 1562 1564 1565 1571 1572 1572 1573 1572 1570 1569 1567 1567 1567 1567 1567 1566 1565 1563 1560 1557 1556 1554 1552 1549 1547
1517 1526 1517 1513 1512 1514 1519 1531 1532 1528 1529 1530 1533 1536 1540 1543 1545 1548 1549 1550 1553 1555 1558 1559 1561 1565 1566 1571 1568 1573 1570 1570 1568 1569 1567 1567 1568 1567 1565 1564 1562 1560 1556 1553 1552 1550 1547 1544 1542
1522 1521 1520 1518 1517 1523 1531 1539 1534 1531 1532 1534 1534 1537 1539 1541 1545 1547 1549 1550 1552 1553 1556 1558 1561 1564 1566 1567 1570 1573 1571 1572 1572 1572 1569 1567 1565 1564 1563 1561 1558 1556 1553 1551 1549 1547 1544 1540 1537
1509 1513 1519 1520 1520 1531 1543 1543 1541 1537 1536 1536 1537 1539 1540 1542 1544 1545 1548 1549 1551 1553 1556 1560 1562 1564 1565 1567 1572 1572 1572 1572 1570 1569 1567 1564 1562 1561 1559 1557 1554 1551 1549 1546 1544 1542 1539 1537 1532
1512 1520 1527 1524 1524 1530 1540 1547 1545 1541 1542 1541 1540 1541 1542 1544 1547 1549 1549 1551 1553 1557 1559 1561 1563 1565 1567 1569 1570 1571 1570 1569 1568 1565 1563 1561 1559 1557 1555 1552 1549 1547 1545 1543 1539 1536 1534 1531 1528
1516 1520 1521 1527 1528 1533 1535 1549 1551 1548 1546 1545 1544 1544 1545 1547 1547 1550 1551 1554 1555 1558 1560 1562 1565 1567 1568 1568 1568 1567 1567 1567 1565 1563 1560 1558 1555 1553 1551 1548 1545 1543 1541 1537 1534 1531 1528 1526 1526
1518 1515 1521 1528 1529 1546 1537 1567 1553 1552 1551 1550 1548 1548 1548 1547 1550 1549 1554 1557 1559 1559 1563 1565 1565 1565 1566 1567 1566 1565 1564 1563 1561 1559 1556 1553 1551 1549 1547 1545 1543 1540 1536 1533 1529 1526 1524 1522 1520
1519 1517 1522 1526 1535 1540 1543 1558 1557 1554 1554 1551 1550 1550 1550 1551 1551 1551 1556 1559 1561 1560 1561 1564 1564 1565 1564 1564 1563 1561 1560 1559 1557 1555 1553 1551 1549 1547 1544 1541 1538 1535 1531 1528 1525 1522 1520 1519 1517
1514 1521 1528 1533 1540 1560 1543 1552 1560 1554 1546 1547 1549 1549 1550 1551 1553 1552 1556 1560 1563 1562 1562 1563 1562 1562 1561 1560 1559 1558 1557 1556 1555 1553 1551 1548 1546 1543 1539 1535 1533 1530 1528 1526 1523 1521 1517 1515 1512
1518 1528 1553 1555 1568 1564 1543 1549 1542 1538 1539 1541 1544 1546 1549 1551 1553 1553 1555 1554 1560 1560 1561 1561 1560 1560 1558 1557 1556 1555 1554 1553 1552 1550 1546 1543 1539 1537 1534 1531 1528 1525 1523 1520 1519 1517 1517 1514 1508
1522 1528 1551 1556 1573 1555 1543 1549 1539 1532 1535 1538 1541 1545 1548 1550 1551 1552 1554 1553 1556 1557 1558 1559 1558 1557 1557 1556 1554 1553 1552 1551 1548 1545 1541 1537 1534 1530 1527 1524 1521 1519 1518 1516 1514 1513 1512 1511 1508
1522 1535 1530 1553 1564 1562 1557 1541 1534 1532 1535 1537 1540 1543 1546 1548 1550 1552 1552 1552 1553 1555 1555 1557 1557 1557 1556 1556 1554 1551 1549 1547 1543 1540 1536 1531 1526 1522 1520 1518 1517 1516 1513 1512 1511 1512 1509 1507 1504
1517 1525 1539 1553 1559 1566 1558 1549 1545 1536 1535 1535 1537 1539 1544 1546 1547 1549 1550 1550 1551 1552 1555 1556 1555 1555 1554 1553 1551 1548 1546 1544 1539 1534 1529 1524 1520 1517 1516 1515 1514 1511 1509 1508 1508 1507 1505 1503 1501
1525 1529 1539 1546 1561 1569 1579 1554 1532 1529 1528 1531 1534 1537 1540 1543 1545 1547 1548 1549 1550 1552 1553 1554 1555 1554 1553 1551 1549 1546 1543 1539 1535 1530 1524 1519 1516 1514 1512 1511 1510 1508 1507 1506 1505 1504 1502 1499 1496
1520 1525 1534 1557 1550 1574 1578 1553 1530 1527 1526 1529 1533 1536 1539 1542 1545 1546 1548 1550 1551 1552 1553 1553 1553 1552 1550 1548 1546 1543 1539 1535 1530 1525 1519 1514 1511 1511 1511 1508 1506 1505 1504 1502 1502 1500 1497 1494 1491